This is the latest recevied weather packets stored in our database for station/object KF4UQS-14. If no packets are shown the sender has not sent any weather packets the latest 10 day(s).
| Time | Temp. | Humidity | Pressure | Rain* | Wind** | Luminosity | Snow |
|---|---|---|---|---|---|---|---|
| 1778152102 | 18.89° C | 97% | 1010.8 hPa | 4.83 mm | - | 2 W/m² | - |
| 1778151799 | 18.89° C | 97% | 1010.6 hPa | 4.83 mm | - | 3 W/m² | - |
| 1778151496 | 18.89° C | 97% | 1010.7 hPa | 1.78 mm | - | 3 W/m² | - |
| 1778151192 | 18.89° C | 96% | 1010.6 hPa | 1.27 mm | - | 2 W/m² | - |
| 1778150889 | 18.89° C | 96% | 1010.4 hPa | 1.27 mm | - | 2 W/m² | - |
| 1778150586 | 18.89° C | 96% | 1010.4 hPa | 1.78 mm | - | 3 W/m² | - |
| 1778150282 | 18.89° C | 96% | 1010.6 hPa | 1.78 mm | - | 3 W/m² | - |
| 1778149978 | 18.89° C | 96% | 1010.4 hPa | 0 mm | - | 1 W/m² | - |
| 1778149675 | 18.89° C | 96% | 1010.1 hPa | 1.27 mm | - | 2 W/m² | - |
| 1778149372 | 18.89° C | 95% | 1010.1 hPa | 1.27 mm | - | 2 W/m² | - |
| 1778149068 | 18.89° C | 95% | 1010.2 hPa | 1.78 mm | - | 1 W/m² | - |
| 1778148763 | 18.89° C | 95% | 1010.1 hPa | 1.78 mm | - | 1 W/m² | - |
| 1778148460 | 19.44° C | 94% | 1009.9 hPa | 0 mm | - | 1 W/m² | - |
| 1778148158 | 19.44° C | 94% | 1010.2 hPa | 1.27 mm | - | 0 W/m² | - |
| 1778147856 | 19.44° C | 93% | 1009.9 hPa | 1.27 mm | - | 0 W/m² | - |
| 1778147547 | 19.44° C | 92% | 1010 hPa | 0 mm | - | 0 W/m² | - |
| 1778147244 | 19.44° C | 91% | 1009.9 hPa | 3.05 mm | - | 0 W/m² | - |
| 1778146941 | 20° C | 90% | 1009.8 hPa | 3.05 mm | - | 0 W/m² | - |
| 1778146638 | 20° C | 89% | 1009.8 hPa | 0 mm | - | 0 W/m² | - |
| 1778146336 | 20° C | 88% | 1010.1 hPa | 0 mm | - | 0 W/m² | - |
| 1778146034 | 20° C | 88% | 1009.6 hPa | 0 mm | - | 0 W/m² | - |
| 1778145730 | 20° C | 88% | 1009.7 hPa | 0 mm | - | 0 W/m² | - |
| 1778145426 | 20° C | 88% | 1009.6 hPa | 0 mm | - | 0 W/m² | - |
| 1778145123 | 20° C | 88% | 1009.7 hPa | 0 mm | - | 0 W/m² | - |
| 1778144818 | 20° C | 88% | 1009.7 hPa | 0 mm | - | 0 W/m² | - |
* Rain latest hour (hover to see other rain measurements)
** Current wind speed in m/s (hover to see current wind gust speed)